User: anonymous   Login
Location: Onan Observatory
(44.8103°N, 93.9397°W)
Time: 07:52:02
(UTC-05:00)
Language:

Iridium 90 - Orbit

View from above orbital plane
View from above orbital plane
View from above satellite
View from above satellite

Ground track
Ground track

The orbit data is extracted from the following two-line orbital elements,

1 27373U 02005B   15185.33728064  .00000360  00000-0  10166-3 0  9998
2 27373 086.4479 288.4244 0002012 107.1296 253.0125 14.42945111708415
Epoch (UTC): 04 July 2015 08:05:41
Eccentricity: 0.0002012
inclination: 86.4479°
perigee height: 747 km
apogee height: 750 km
right ascension of ascending node: 288.4244°
argument of perigee: 107.1296°
revolutions per day: 14.42945111
mean anomaly at epoch: 253.0125°
orbit number at epoch: 70841

The dashed part of the orbit path shows where the satellite is in the earth's shadow,  

DLR